Waarnemingen

Advertentie
Mijn weer
Girona/Costa Brava, Spanje (8184): temperatuur & dauwpunt: 09.08.2018 01:00:00 - 15.08.2018 01:00:00 (CEST)Girona/Costa Brava, Spanje (8184): windsnelheid: 09.08.2018 01:00:00 - 15.08.2018 01:00:00 (CEST)Girona/Costa Brava, Spanje (8184): windrichting: 09.08.2018 01:00:00 - 15.08.2018 01:00:00 (CEST)Girona/Costa Brava, Spanje (8184): luchtdruk: 09.08.2018 01:00:00 - 15.08.2018 01:00:00 (CEST)Girona/Costa Brava, Spanje (8184): zicht: 09.08.2018 01:00:00 - 15.08.2018 01:00:00 (CEST)
Datum & Tijd tt [°C] td [°C] ff [km/u] ff [kn] dd ppp [hPa] vv [km]
15.08.2018 01:00:00 - - - - - - -
15.08.2018 00:00:00 22,0 18,6 4 2 NNO 1017,4 -
14.08.2018 23:00:00 22,1 18,2 5 3 W 1017,3 -
14.08.2018 22:00:00 23,3 18,6 4 2 WZW 1017,1 -
14.08.2018 21:00:00 24,1 18,5 13 7 Z 1016,5 -
14.08.2018 20:00:00 25,3 18,7 18 10 ZZW 1015,6 -
14.08.2018 19:00:00 27,1 18,9 21 11 Z 1015,0 -
14.08.2018 18:00:00 28,3 18,8 22 12 ZZW 1015,0 -
14.08.2018 17:00:00 29,4 18,4 15 8 ZZW 1014,8 -
14.08.2018 16:00:00 28,8 17,3 11 6 ZO 1014,7 -
14.08.2018 15:00:00 28,8 15,8 8 4 Z 1015,0 -
14.08.2018 14:00:00 28,4 15,7 8 4 NO 1015,1 -
14.08.2018 13:00:00 27,3 15,9 13 7 NO 1015,5 -
14.08.2018 12:00:00 27,3 16,3 8 4 ONO 1015,9 -
14.08.2018 11:00:00 25,6 16,3 15 8 NO 1015,9 -
14.08.2018 10:00:00 24,3 16,2 15 8 NNO 1016,0 -
14.08.2018 09:00:00 21,6 16,7 11 6 NNO 1015,9 -
14.08.2018 08:00:00 20,7 17,6 5 3 NO 1015,5 35
14.08.2018 07:00:00 20,3 18,0 4 2 NO 1014,9 -
14.08.2018 06:00:00 19,3 18,0 8 4 WNW 1014,3 -
14.08.2018 05:00:00 19,8 17,2 8 4 N 1014,0 -
14.08.2018 04:00:00 20,6 18,0 4 2 WNW 1014,7 -
14.08.2018 03:00:00 20,6 17,6 8 4 NO 1014,0 -
14.08.2018 02:00:00 21,6 18,2 0 0 N 1014,6 -
14.08.2018 01:00:00 22,4 18,4 9 5 NNO 1014,4 -
14.08.2018 00:00:00 23,0 18,7 15 8 NNO 1014,3 -
13.08.2018 23:00:00 23,1 19,9 5 3 NNO 1013,7 30
13.08.2018 22:00:00 23,4 20,1 5 3 NNO 1013,4 -
13.08.2018 21:00:00 23,5 19,4 5 3 NW 1012,5 -
13.08.2018 20:00:00 23,5 19,4 9 5 N 1012,1 25
13.08.2018 19:00:00 26,0 20,1 9 5 O 1011,2 -
13.08.2018 18:00:00 28,7 19,3 18 10 ZO 1011,4 -
13.08.2018 17:00:00 27,7 19,5 16 9 ZZO 1011,6 28
13.08.2018 16:00:00 27,8 18,8 18 10 ZO 1011,7 -
13.08.2018 15:00:00 29,2 19,4 16 9 OZO 1011,9 -
13.08.2018 14:00:00 29,9 19,8 13 7 ZO 1012,1 28
13.08.2018 13:00:00 30,1 18,8 9 5 ZW 1012,8 -
13.08.2018 12:00:00 29,1 19,1 5 3 O 1013,2 -
13.08.2018 11:00:00 28,2 18,6 8 4 ZZO 1013,4 40
13.08.2018 10:00:00 26,3 17,8 9 5 NNO 1013,3 -
13.08.2018 09:00:00 24,5 17,1 8 4 NNO 1012,6 -
13.08.2018 08:00:00 21,1 16,5 4 2 NNO 1012,0 40
13.08.2018 07:00:00 19,3 15,8 5 3 N 1011,8 -
13.08.2018 06:00:00 19,9 16,3 4 2 W 1012,2 -
13.08.2018 05:00:00 20,9 16,7 9 5 N 1012,7 -
13.08.2018 04:00:00 21,1 16,5 8 4 ONO 1013,1 -
13.08.2018 03:00:00 22,1 17,0 5 3 W 1012,7 -
13.08.2018 02:00:00 23,6 17,8 8 4 N 1013,0 30
13.08.2018 01:00:00 24,2 17,0 11 6 ZW 1012,3 -
13.08.2018 00:00:00 25,2 18,9 5 3 Z 1011,8 -
12.08.2018 23:00:00 26,4 19,5 0 0 N 1012,5 30
12.08.2018 22:00:00 26,8 21,1 5 3 N 1013,6 -
12.08.2018 21:00:00 27,6 20,2 22 12 ZW 1012,6 -
12.08.2018 20:00:00 28,2 20,5 28 15 ZZW 1012,1 22
12.08.2018 19:00:00 28,2 22,0 29 16 ZZW 1011,8 -
12.08.2018 18:00:00 30,2 22,9 35 19 Z 1011,8 -
12.08.2018 17:00:00 32,7 23,4 34 18 Z 1011,9 25
12.08.2018 16:00:00 32,9 23,3 29 16 Z 1012,8 -
12.08.2018 15:00:00 33,2 23,4 31 17 Z 1013,3 -
12.08.2018 14:00:00 34,0 22,8 22 12 Z 1013,7 25
12.08.2018 13:00:00 33,3 20,7 13 7 Z 1014,6 -
12.08.2018 12:00:00 31,2 19,9 5 3 ZZW 1015,5 -
12.08.2018 11:00:00 29,2 19,5 4 2 ZW 1016,0 30
12.08.2018 10:00:00 27,1 19,3 5 3 OZO 1015,9 -
12.08.2018 09:00:00 24,2 18,8 0 0 N 1016,0 -
12.08.2018 08:00:00 20,4 17,8 4 2 ZZO 1016,3 -
12.08.2018 07:00:00 18,5 17,0 0 0 N 1016,2 -
12.08.2018 06:00:00 18,2 16,7 0 0 N 1016,4 -
12.08.2018 05:00:00 18,8 16,9 4 2 NNO 1016,6 -
12.08.2018 04:00:00 19,3 17,1 4 2 WNW 1017,2 -
12.08.2018 03:00:00 19,6 17,2 0 0 N 1017,6 -
12.08.2018 02:00:00 20,2 17,4 0 0 N 1017,9 -
12.08.2018 01:00:00 21,7 17,9 0 0 N 1018,4 -
12.08.2018 00:00:00 22,3 18,1 5 3 WZW 1018,7 -
11.08.2018 23:00:00 23,3 18,0 5 3 ZZW 1018,8 -
11.08.2018 22:00:00 23,4 17,6 9 5 ZZW 1018,8 -
11.08.2018 21:00:00 24,0 17,0 13 7 ZZW 1018,6 -
11.08.2018 20:00:00 25,0 15,6 16 9 ZZW 1018,8 30
11.08.2018 19:00:00 27,3 14,7 22 12 Z 1018,8 -
11.08.2018 18:00:00 28,9 14,1 22 12 Z 1018,5 -
11.08.2018 17:00:00 30,0 14,1 22 12 Z 1018,9 40
11.08.2018 16:00:00 31,0 14,5 18 10 ZZW 1019,4 -
11.08.2018 15:00:00 31,4 14,8 18 10 ZZW 1019,9 -
11.08.2018 14:00:00 31,1 15,4 15 8 ZW 1020,4 40
11.08.2018 13:00:00 30,3 15,8 16 9 ZZW 1020,9 -
11.08.2018 12:00:00 29,2 15,9 11 6 Z 1021,4 -
11.08.2018 11:00:00 27,4 15,4 8 4 Z 1022,0 40
11.08.2018 10:00:00 25,3 17,0 2 1 ZO 1022,3 -
11.08.2018 09:00:00 22,3 17,4 0 0 N 1022,5 -
11.08.2018 08:00:00 19,5 16,5 0 0 N 1021,9 40
11.08.2018 07:00:00 16,6 15,5 4 2 N 1022,0 -
11.08.2018 06:00:00 17,0 15,3 0 0 N 1022,1 -
11.08.2018 05:00:00 17,5 15,7 0 0 N 1022,1 -
11.08.2018 04:00:00 18,3 15,9 4 2 WNW 1022,2 -
11.08.2018 03:00:00 18,3 15,9 5 3 W 1022,8 -
11.08.2018 02:00:00 19,1 16,0 8 4 NO 1023,2 -
11.08.2018 01:00:00 19,5 16,0 0 0 N 1023,6 -
11.08.2018 00:00:00 20,6 15,5 8 4 NW 1023,4 -
10.08.2018 23:00:00 20,8 15,6 8 4 WNW 1023,3 30
10.08.2018 22:00:00 22,2 15,3 5 3 ZZW 1022,4 -
10.08.2018 21:00:00 23,6 14,9 9 5 ZO 1021,4 -
10.08.2018 20:00:00 26,2 14,5 11 6 ZZW 1020,9 30
10.08.2018 19:00:00 27,7 14,2 16 9 ZZW 1020,7 -
10.08.2018 18:00:00 29,0 14,4 21 11 ZZW 1020,9 -
10.08.2018 17:00:00 30,4 15,4 18 10 Z 1021,0 -
10.08.2018 16:00:00 30,3 15,4 9 5 Z 1021,2 -
10.08.2018 15:00:00 30,9 15,3 9 5 ZW 1021,3 -
10.08.2018 14:00:00 29,6 14,4 8 4 Z 1021,4 30
10.08.2018 13:00:00 29,7 14,3 8 4 OZO 1021,6 -
10.08.2018 12:00:00 28,3 15,1 8 4 OZO 1021,8 -
10.08.2018 11:00:00 26,3 14,6 11 6 NO 1022,1 -
10.08.2018 10:00:00 24,5 17,4 5 3 OZO 1022,1 -
10.08.2018 09:00:00 22,6 18,4 5 3 NNO 1021,9 -
10.08.2018 08:00:00 19,1 17,5 9 5 NNO 1021,7 40
10.08.2018 07:00:00 18,0 16,8 9 5 NNO 1021,6 -
10.08.2018 06:00:00 17,7 16,4 8 4 NNO 1021,1 -
10.08.2018 05:00:00 17,9 16,2 4 2 NO 1020,8 -
10.08.2018 04:00:00 19,1 16,7 11 6 NNO 1020,9 -
10.08.2018 03:00:00 18,7 16,4 5 3 N 1020,8 -
10.08.2018 02:00:00 19,1 15,4 9 5 N 1020,7 25
10.08.2018 01:00:00 18,5 15,9 9 5 N 1020,2 -
10.08.2018 00:00:00 18,8 15,8 13 7 NNO 1019,9 -
09.08.2018 23:00:00 18,9 16,7 11 6 NNO 1019,8 15
09.08.2018 22:00:00 18,9 17,2 11 6 NNO 1018,8 -
09.08.2018 21:00:00 18,8 17,3 8 4 N 1018,4 -
09.08.2018 20:00:00 19,6 17,2 16 9 NO 1018,5 20
09.08.2018 19:00:00 19,6 17,6 21 11 NO 1017,6 -
09.08.2018 18:00:00 19,8 19,0 18 10 NO 1016,8 -
09.08.2018 17:00:00 21,9 18,5 8 4 O 1016,6 8
09.08.2018 16:00:00 26,0 17,0 13 7 NNW 1015,0 -
09.08.2018 15:00:00 29,2 22,6 18 10 Z 1013,7 -
09.08.2018 14:00:00 28,9 23,6 11 6 ZW 1013,2 9
09.08.2018 13:00:00 24,8 21,5 2 1 W 1014,1 -
09.08.2018 12:00:00 24,2 20,6 9 5 ZW 1013,9 -
09.08.2018 11:00:00 24,6 21,8 15 8 WZW 1013,6 9
09.08.2018 10:00:00 29,7 21,0 11 6 WZW 1012,5 -
09.08.2018 09:00:00 26,7 21,8 4 2 ZW 1012,4 -
09.08.2018 08:00:00 23,9 21,8 4 2 ZZW 1012,1 20
09.08.2018 07:00:00 22,5 20,6 5 3 W 1011,9 -
09.08.2018 06:00:00 23,2 20,9 4 2 WZW 1012,1 -
09.08.2018 05:00:00 23,5 21,1 0 0 N 1012,2 20
09.08.2018 04:00:00 24,2 21,1 8 4 ZZW 1012,3 -
09.08.2018 03:00:00 22,8 20,5 4 2 WZW 1011,9 -
09.08.2018 02:00:00 22,5 19,9 8 4 ZW 1012,3 -
09.08.2018 01:00:00 22,8 19,8 8 4 W 1012,8 -

tt = temperatuur
td = dauwpunt
ff = windsnelheid
dd = windrichting
ppp = luchtdruk
vv = zicht

Weerstations in de omgeving